Voltar ao catálogo

ORBCOMM FM 7

AtivoComunicaçõesLEO
NORAD 25119·PAYLOAD·🇺🇸 United States

Lançado Dec 23, 1997 de Cape Canaveral Space Force Station

Loading…

Próximas Passagens (próximas 24 horas)

TLE

AtualizadoSource: Space-Track

Época: Sep 14, 2026, 07:15 UTC

1 25119U 97084H   26257.30218909  .00000790  00000-0  25080-3 0  9994
2 25119  45.0150 344.3681 0002005 301.4996  58.5660 14.47751748507294

Acompanhe ORBCOMM FM 7 em tempo real com AllMySat

Download on the App Store